Regional Weather Roundup
Issued by NWS

Home | Current Version | Previous Version | Graphics & Text | Print | Product List | Glossary On
Versions: 1 2 3 4 5 6 7 8 9 10 11 12 13 14 15 16 17 18 19 20 21 22 23 24 25 26 27 28 29 30 31 32 33 34 35 36 37 38 39 40 41 42 43 44 45 46 47 48 49 50
000
ASUS43 KLSX 050410
RWRMO

WEATHER SUMMARY FOR MISSOURI
NATIONAL WEATHER SERVICE SPRINGFIELD MO
1100 PM CDT TUE AUG 04 2015

NOTE: "FAIR" INDICATES FEW OR NO CLOUDS BELOW 12,000 FEET WITH NO
       SIGNIFICANT WEATHER AND/OR OBSTRUCTIONS TO VISIBILITY.
       CURRENT SKY AND/OR WEATHER CONDITIONS ARE NOT AVAILABLE FOR
       CHILLICOTHE AND FARMINGTON.

MOZ001>031-035>038-043-044-053-054-050500-
...NORTHERN AND WESTERN MISSOURI...

CITY           SKY/WX    TMP DP  RH WIND       PRES   REMARKS
KANSAS CTY INT CLOUDY    71  69  93 SE9       29.98R
KANSAS C DTWN  CLOUDY    73  69  87 SE6       29.98R
LEE`S SUMMIT   CLOUDY    71  68  90 E8        30.01R
ST JOSEPH      MOCLDY    72  68  87 CALM      29.97R
CHILLICOTHE      N/A     71  68  90 CALM      30.01S
KIRKSVILLE     CLOUDY    70  65  84 E6        30.03S

$$
MOZ066>068-077>081-088>096-101>105-050500-
...SOUTHWEST MISSOURI...

CITY           SKY/WX    TMP DP  RH WIND       PRES   REMARKS
SPRINGFIELD    LGT RAIN  74  69  85 NW7       30.02R
JOPLIN         CLOUDY    74  70  87 E7        29.99F

$$
MOZ032>034-039>042-045>050-055>058-069>072-050500-
...CENTRAL MISSOURI...

CITY           SKY/WX    TMP DP  RH WIND       PRES   REMARKS
COLUMBIA       LGT RAIN  70  68  93 N7        30.02S
JEFFERSON CITY LGT RAIN  72  65  78 NW10      29.98F
ROLLA          CLOUDY    69  63  81 S3        29.99F
SEDALIA        CLOUDY    70  67  90 SE6       30.02S
WHITEMAN AFB   MOCLDY    70  68  95 SE5       30.00R
WARRENSBURG    CLOUDY    70  68  94 SE3       30.00R
OSAGE BEACH    CLOUDY    72  66  83 CALM      30.00F

$$
MOZ051-052-059>065-050500-
...EAST CENTRAL MISSOURI...

CITY           SKY/WX    TMP DP  RH WIND       PRES   REMARKS
ST LOUIS INTL  MOCLDY    79  70  74 E6        30.01R
SPIRIT OF STL  CLOUDY    75  73  93 S3        29.99R
ST CHARLES     MOCLDY    74  69  85 E6        29.99R

$$
MOZ072>076-082>087-097>100-106>115-050500-
...SOUTH CENTRAL AND SOUTHEAST MISSOURI...

CITY           SKY/WX    TMP DP  RH WIND       PRES   REMARKS
CAPE GIRARDEAU CLOUDY    78  69  73 E5        29.98S
FARMINGTON     CLOUDY    75  72  88 CALM      30.04F
POPLAR BLUFF   CLOUDY    80  77  90 CALM      29.96S
WEST PLAINS    CLOUDY    75  65  70 SW10      30.07R

$$


USA.gov is the U.S. government's official web portal to all federal, state and local government web resources and services.